Regional Weather Roundup
Issued by NWS Upton, NY

Current Version | Previous Version | Text Only | Print | Product List | Glossary On
Versions: 1 2 3 4 5 6 7 8 9 10 11 12 13 14 15 16 17 18 19 20 21 22 23 24 25 26 27 28 29 30 31 32 33 34 35 36 37 38 39 40 41 42 43 44 45 46 47 48 49 50
609 ASUS41 KOKX 271709 RWROKX REGIONAL WEATHER ROUNDUP NATIONAL WEATHER SERVICE NEW YORK NY 100 PM EDT TUE JUN 27 2017 NOTE: "FAIR" INDICATES FEW OR NO CLOUDS BELOW 12,000 FEET WITH NO SIGNIFICANT WEATHER AND/OR OBSTRUCTIONS TO VISIBILITY. NYZ071-072-176-178-NJZ106-104-271800- NEW YORK CITY METRO AREA CITY SKY/WX TMP DP RH WIND PRES REMARKS Central Park MOSUNNY 74 59 59 VRB3 30.00F Bronx Bot Gard N/A 73 50 43 SW13 29.98F LaGuardia APRT PTSUNNY 74 59 59 S13 29.97F Kennedy INTL PTSUNNY 73 57 57 SW8 29.99F Breezy Point N/A 68 N/A N/A S3 N/A Newark/Liberty PTSUNNY 76 56 49 SW9 29.97F Teterboro MOSUNNY 75 59 57 MISG 29.96F $$ NYZ177-179-078>081-271800- LONG ISLAND NEW YORK CITY SKY/WX TMP DP RH WIND PRES REMARKS Jones Beach N/A 70 N/A N/A NW3 N/A Matinecock PT N/A N/A N/A N/A E3 N/A Farmingdale NOT AVBL MacArthur/ISP PTSUNNY 73 61 65 SE6 29.98F Shirley CLOUDY 72 65 78 S10 29.98F Mt Sinai Harb N/A N/A N/A N/A N5 N/A Westhampton MOSUNNY 69 63 81 S8 30.00F East Hampton PTSUNNY 68 63 82 S8 29.99S Montauk N/A 68 65 90 VRB3 30.01S $$ NYZ052-065-067-271800- HUDSON VALLEY CITY SKY/WX TMP DP RH WIND PRES REMARKS White Plains PTSUNNY 71 57 61 VRB3 29.97F Larchmont Harb N/A 66 N/A N/A NE6 N/A Croton O-T Hud N/A 72 N/A N/A SE9 N/A Newburgh MOSUNNY 73 54 49 W9G16 29.96F Montgomery MOSUNNY 75 53 46 S12 29.95F Poughkeepsie SUNNY 73 54 51 SW9 29.94F Albany TSTM 63 56 78 SE5 29.95F $$ NJZ001-105-106-008-010-013-015-019>022-104-271800- NEW JERSEY CITY SKY/WX TMP DP RH WIND PRES REMARKS Newark/Liberty PTSUNNY 76 56 49 SW9 29.97F Teterboro MOSUNNY 75 59 57 MISG 29.96F Caldwell SUNNY 76 56 49 VRB6 29.97F Somerville MOSUNNY 74 60 61 VRB6 29.96F Linden FAIR 74 57 55 CALM 29.98F Perth Amboy N/A 70 N/A N/A W7 N/A Sussex MOSUNNY 73 53 49 VRB7 29.97F Andover N/A 72 50 45 VRB7 29.98F Trenton MOSUNNY 74 59 59 MISG 29.98F Millville MOSUNNY 78 58 49 MISG 29.99F Atlantic City NOT AVBL Wrightstown MOSUNNY 75 59 57 NW3 29.95F Toms River MOSUNNY 79 56 45 W9 29.98F Belmar MOSUNNY 76 56 49 W9 29.99F $$ PAZ047>061-062-071-271800- EASTERN PENNSYLVANIA CITY SKY/WX TMP DP RH WIND PRES REMARKS Philadelphia MOSUNNY 77 54 44 SW8 29.99F Allentown PTSUNNY 75 52 44 SW13G24 29.98F Scranton MOSUNNY 68 51 54 SW8 29.97F $$ CTZ002-004>006-009-010-012-RIZ004-006-007-MAZ004-011-015-271800- SOUTHERN NEW ENGLAND IN CT CITY SKY/WX TMP DP RH WIND PRES REMARKS Bradley INTL LGT RAIN 70 61 73 S8 29.96F Hartford CLOUDY 72 60 66 S5 29.96F Danbury MOSUNNY 71 57 61 SW10 29.98F Wtrbury/Oxford PTSUNNY 70 57 64 SW9 29.98F Bridgeport MOSUNNY 71 57 61 S5 29.98F Meriden CLOUDY 72 56 57 S12G21 29.97F New Haven PTSUNNY 70 58 65 SE7 29.98F Chester PTSUNNY 72 57 60 SE9 29.99F Groton LGT RAIN 66 59 78 SE8 29.99R Wilimantic CLOUDY 74 57 55 S12 29.98F IN RI CITY SKY/WX TMP DP RH WIND PRES REMARKS Providence CLOUDY 68 65 90 SE12 29.99S Block Island LGT RAIN 65 62 90 SE5 30.01S Westerly CLOUDY 67 62 84 SE9 30.01R IN MA CITY SKY/WX TMP DP RH WIND PRES REMARKS Boston PTSUNNY 69 58 67 SE7 29.97F Worcester PTSUNNY 68 51 54 SW12 29.98F Westfield PTSUNNY 72 60 66 S8 29.95F Provincetown CLOUDY 68 63 84 S12 30.00F Nantucket CLOUDY 68 64 87 S13 30.02F $$ ANZ330-335-338-340-345-350-353-355-271800- COASTAL MARINE OBSERVATIONS STATION/POSITION TIME SKY/WX TEMP WIND PRES VSBY WAVE AIR SEA DIR/SP/G HT/PER (UTC) (F) (DEG/KT/KT) (MB) (MI) (FT/S) NY HARB ENTRANCE 1550 65 68 320/ 4/ 6 1015.7 1/ 7 20 S FIRE ISLAND 1550 70 70 190/ 14/ 21 1015.1 2/ 8 GREAT SOUTH BAY 1615 68 75 130/ 6/ 10 N/A 23 SSW MONTAUK P 1550 68 67 1015.9 2/ 7 15 E BARNEGAT LI 1630 67 N/A 2/ 7 HUDSON CANYON 1550 69 68 170/ 10/ 12 1015.8 2/ 7 KINGS POINT 1630 69 65 CALM / 3 1014.9 EXECUTION ROCKS 1645 67 CALM / 2 N/A CENTRAL LI SOUND NOT AVBL EASTERN LI SOUND NOT AVBL ROBBINS REEF 1630 160/ 9/ 10 1015.7 $$ >>>>>>>>>>>>>>>>>>>>>>>>>>>> KEY <<<<<<<<<<<<<<<<<<<<<<<<<<< > < > SKY/WX - Sky Condition/Present Weather < > TMP - Temperature in Fahrenheit < > DP - Dew Point in Fahrenheit < > RH - Relative Humidity in Percent < > WIND - Direction (from) and Speed in MPH < > PRES - Mean Sea Level Pressure (inches of Hg) < > WCI - Wind Chill Index < > VSB - VISIBILITY IN MILES < > HX - HEAT INDEX < > TC - TEMPERATURE IN CELSIUS < > VRB - VARIABLE WIND DIRECTION < > < >>>>>>>>>>>>>>>>>>>>>>>>>>>> KEY <<<<<<<<<<<<<<<<<<<<<<<<<<<

USA.gov is the U.S. government's official web portal to all federal, state and local government web resources and services.